Temp: 17.1°C   Baro: 1008.4mb
  Wind: 4.9mph   Dir: WNW (298°)
  Rain: 0.2mm (0.0mm/hr)
  Solar: 183W/m2  Hum: 76%
 
Cotswold Observatory Historical Data
 
Daily Summary for June 19, 2019 Units:  Metric    English   Both
Next Day »
Daily Weekly Monthly Yearly Custom
  Current: High: Low: Average:
Temperature: 17.1 °C 17.3 °C 13.4 °C 15.2 °C
Dew Point: 13.0 °C 14.2 °C 12.6 °C 13.4 °C
Humidity: 77% 96% 77% 90%
Wind Speed: 14.3km/h 16.3km/h 0.0km/h 2.4km/h
Wind Gust: 16.1km/h 19.3km/h - -
Wind directionWest - - WNW
Pressure: 1008.4 hPa 1009.4 hPa 1007.0 hPa -
Precipitation: 0.3 mm      
Historical Graphs
 
 
Tabular Data for June 19, 2019
Time Temperature Dew Point Pressure Wind direction Wind Speed Wind Gust Humidity Rainfall Rate (Hourly) solar
00:04 14.1 °C 13.1 °C 1009.4 hPa Calm     94% 0.0 mm 0.00 W/m2
00:09 14.1 °C 13.1 °C 1009.4 hPa Calm     94% 0.0 mm 0.00 W/m2
00:14 14.0 °C 13.0 °C 1009.4 hPa Calm     94% 0.0 mm 0.00 W/m2
00:19 13.9 °C 12.9 °C 1009.4 hPa Calm     94% 0.0 mm 0.00 W/m2
00:24 13.8 °C 12.9 °C 1009.4 hPa Calm     94% 0.0 mm 0.00 W/m2
00:29 13.8 °C 12.9 °C 1009.4 hPa Calm     94% 0.0 mm 0.00 W/m2
00:34 13.7 °C 12.8 °C 1009.4 hPa Calm     94% 0.0 mm 0.00 W/m2
00:39 13.7 °C 12.8 °C 1009.4 hPa Calm     94% 0.0 mm 0.00 W/m2
00:44 13.7 °C 12.8 °C 1009.4 hPa Calm     94% 0.0 mm 0.00 W/m2
00:49 13.7 °C 12.8 °C 1009.4 hPa Calm     94% 0.0 mm 0.00 W/m2
00:54 13.7 °C 12.8 °C 1009.4 hPa Calm     94% 0.0 mm 0.00 W/m2
00:59 13.7 °C 12.8 °C 1009.4 hPa Calm     94% 0.0 mm 0.00 W/m2
01:04 13.7 °C 12.8 °C 1009.0 hPa Calm     94% 0.0 mm 0.00 W/m2
01:09 13.7 °C 12.8 °C 1009.0 hPa Calm     94% 0.0 mm 0.00 W/m2
01:14 13.7 °C 12.8 °C 1009.0 hPa Calm     94% 0.0 mm 0.00 W/m2
01:19 13.7 °C 12.8 °C 1008.7 hPa Calm     94% 0.0 mm 0.00 W/m2
01:24 13.7 °C 12.8 °C 1008.7 hPa Calm     94% 0.0 mm 0.00 W/m2
01:29 13.7 °C 12.8 °C 1008.7 hPa Calm     94% 0.0 mm 0.00 W/m2
01:34 13.7 °C 12.8 °C 1008.7 hPa Calm     94% 0.0 mm 0.00 W/m2
01:39 13.7 °C 12.9 °C 1008.7 hPa Calm     95% 0.0 mm 0.00 W/m2
01:44 13.7 °C 12.9 °C 1008.7 hPa Calm     95% 0.0 mm 0.00 W/m2
01:49 13.7 °C 12.9 °C 1008.7 hPa Calm     95% 0.0 mm 0.00 W/m2
01:54 13.7 °C 12.9 °C 1008.4 hPa Calm     95% 0.0 mm 0.00 W/m2
01:59 13.7 °C 12.9 °C 1008.4 hPa Calm     95% 0.0 mm 0.00 W/m2
02:04 13.7 °C 12.9 °C 1008.4 hPa Calm     95% 0.0 mm 0.00 W/m2
02:09 13.7 °C 12.9 °C 1008.4 hPa Calm     95% 0.0 mm 0.00 W/m2
02:14 13.7 °C 12.9 °C 1008.4 hPa Calm     95% 0.0 mm 0.00 W/m2
02:19 13.7 °C 12.9 °C 1008.4 hPa Calm     95% 0.0 mm 0.00 W/m2
02:24 13.7 °C 12.9 °C 1008.4 hPa Calm     95% 0.0 mm 0.00 W/m2
02:29 13.7 °C 12.9 °C 1008.4 hPa Calm     95% 0.0 mm 0.00 W/m2
02:34 13.7 °C 12.9 °C 1008.4 hPa Calm     95% 0.0 mm 0.00 W/m2
02:39 13.7 °C 12.9 °C 1008.4 hPa Calm     95% 0.0 mm 0.00 W/m2
02:44 13.7 °C 12.9 °C 1008.4 hPa Calm     95% 0.0 mm 0.00 W/m2
02:49 13.7 °C 12.9 °C 1008.4 hPa Calm     95% 0.0 mm 0.00 W/m2
02:54 13.7 °C 12.9 °C 1008.4 hPa Calm     95% 0.0 mm 0.00 W/m2
02:59 13.7 °C 12.9 °C 1008.0 hPa Calm     95% 0.0 mm 0.00 W/m2
03:04 13.6 °C 12.8 °C 1008.0 hPa Calm     95% 0.0 mm 0.00 W/m2
03:09 13.6 °C 12.8 °C 1008.0 hPa Calm     95% 0.0 mm 0.00 W/m2
03:14 13.6 °C 12.8 °C 1007.7 hPa Calm     95% 0.0 mm 0.00 W/m2
03:19 13.6 °C 12.8 °C 1007.7 hPa Calm     95% 0.0 mm 0.00 W/m2
03:24 13.6 °C 12.8 °C 1008.0 hPa Calm     95% 0.0 mm 0.00 W/m2
03:29 13.6 °C 12.8 °C 1008.0 hPa Calm     95% 0.0 mm 0.00 W/m2
03:34 13.6 °C 12.8 °C 1007.7 hPa Calm     95% 0.0 mm 0.00 W/m2
03:39 13.6 °C 12.8 °C 1007.7 hPa Calm     95% 0.0 mm 0.00 W/m2
03:44 13.6 °C 12.8 °C 1007.7 hPa Calm     95% 0.0 mm 0.00 W/m2
03:49 13.6 °C 12.8 °C 1007.7 hPa Calm     95% 0.0 mm 0.00 W/m2
03:54 13.6 °C 12.8 °C 1007.7 hPa Calm     95% 0.0 mm 0.00 W/m2
03:59 13.6 °C 12.8 °C 1007.7 hPa Calm     95% 0.0 mm 0.00 W/m2
04:04 13.6 °C 12.8 °C 1008.0 hPa Calm     95% 0.0 mm 0.00 W/m2
04:09 13.6 °C 12.8 °C 1008.0 hPa Calm     95% 0.0 mm 0.00 W/m2
04:14 13.6 °C 12.8 °C 1008.0 hPa Calm     95% 0.0 mm 0.00 W/m2
04:19 13.6 °C 12.8 °C 1008.0 hPa Calm     95% 0.0 mm 0.00 W/m2
04:24 13.6 °C 12.8 °C 1008.0 hPa Calm     95% 0.0 mm 0.00 W/m2
04:29 13.6 °C 12.8 °C 1008.0 hPa Calm     95% 0.0 mm 0.00 W/m2
04:34 13.6 °C 12.8 °C 1008.0 hPa Calm     95% 0.0 mm 0.00 W/m2
04:39 13.5 °C 12.7 °C 1008.0 hPa Calm     95% 0.0 mm 0.00 W/m2
04:44 13.5 °C 12.7 °C 1007.7 hPa Calm     95% 0.0 mm 0.00 W/m2
04:49 13.4 °C 12.6 °C 1007.7 hPa Calm     95% 0.0 mm 0.00 W/m2
04:54 13.4 °C 12.6 °C 1007.7 hPa Calm     95% 0.0 mm 0.00 W/m2
04:59 13.4 °C 12.6 °C 1007.7 hPa Calm     95% 0.0 mm 0.00 W/m2
05:04 13.4 °C 12.6 °C 1007.7 hPa Calm     95% 0.0 mm 0.00 W/m2
05:09 13.4 °C 12.6 °C 1007.7 hPa Calm     95% 0.0 mm 0.00 W/m2
05:14 13.4 °C 12.6 °C 1007.7 hPa Calm     95% 0.0 mm 0.00 W/m2
05:19 13.4 °C 12.6 °C 1007.3 hPa Calm     95% 0.0 mm 7.00 W/m2
05:24 13.4 °C 12.8 °C 1007.3 hPa Calm     96% 0.0 mm 12.00 W/m2
05:29 13.4 °C 12.6 °C 1007.3 hPa Calm     95% 0.3 mm 16.00 W/m2
05:34 13.4 °C 12.8 °C 1007.3 hPa Calm     96% 0.3 mm 14.00 W/m2
05:39 13.4 °C 12.8 °C 1007.3 hPa Calm   4.8 km/h 96% 0.3 mm 19.00 W/m2
05:44 13.4 °C 12.8 °C 1007.3 hPa Calm   4.8 km/h 96% 0.3 mm 23.00 W/m2
05:49 13.5 °C 12.7 °C 1007.3 hPa Calm   1.6 km/h 95% 0.3 mm 32.00 W/m2
05:54 13.4 °C 12.6 °C 1007.3 hPa ESE 1.4 km/h 1.6 km/h 95% 0.3 mm 35.00 W/m2
05:59 13.4 °C 12.6 °C 1007.0 hPa Calm     95% 0.3 mm 40.00 W/m2
06:04 13.4 °C 12.6 °C 1007.0 hPa ESE 1.4 km/h 4.8 km/h 95% 0.3 mm 42.00 W/m2
06:09 13.5 °C 12.9 °C 1007.0 hPa ESE 3.2 km/h 3.2 km/h 96% 0.3 mm 49.00 W/m2
06:14 13.5 °C 12.9 °C 1007.0 hPa Calm     96% 0.3 mm 54.00 W/m2
06:19 13.5 °C 12.9 °C 1007.0 hPa Calm   4.8 km/h 96% 0.3 mm 69.00 W/m2
06:24 13.6 °C 13.0 °C 1007.0 hPa Calm     96% 0.3 mm 74.00 W/m2
06:29 13.6 °C 13.0 °C 1007.3 hPa Calm   1.6 km/h 96% 0.0 mm 58.00 W/m2
06:34 13.6 °C 13.0 °C 1007.3 hPa Calm     96% 0.0 mm 54.00 W/m2
06:39 13.7 °C 13.1 °C 1007.3 hPa Calm     96% 0.0 mm 56.00 W/m2
06:44 13.7 °C 13.1 °C 1007.3 hPa Calm     96% 0.0 mm 51.00 W/m2
06:49 13.7 °C 13.1 °C 1007.3 hPa Calm     96% 0.0 mm 35.00 W/m2
06:54 13.7 °C 13.1 °C 1007.3 hPa Calm     96% 0.0 mm 30.00 W/m2
06:59 13.8 °C 13.2 °C 1007.3 hPa Calm     96% 0.0 mm 56.00 W/m2
07:04 13.8 °C 13.2 °C 1007.3 hPa Calm     96% 0.0 mm 83.00 W/m2
07:09 13.8 °C 13.2 °C 1007.3 hPa Calm     96% 0.0 mm 91.00 W/m2
07:14 13.9 °C 13.3 °C 1007.3 hPa Calm     96% 0.0 mm 125.00 W/m2
07:19 13.9 °C 13.3 °C 1007.3 hPa Calm   3.2 km/h 96% 0.0 mm 141.00 W/m2
07:24 13.9 °C 13.3 °C 1007.3 hPa Calm   4.8 km/h 96% 0.0 mm 130.00 W/m2
07:29 14.1 °C 13.5 °C 1007.7 hPa ESE 1.4 km/h 3.2 km/h 96% 0.0 mm 113.00 W/m2
07:34 14.0 °C 13.2 °C 1007.7 hPa NW 6.4 km/h 8.0 km/h 95% 0.0 mm 84.00 W/m2
07:39 13.9 °C 13.1 °C 1007.7 hPa WNW 3.2 km/h 8.0 km/h 95% 0.0 mm 74.00 W/m2
07:44 14.0 °C 13.4 °C 1007.7 hPa WNW 4.7 km/h 4.8 km/h 96% 0.0 mm 62.00 W/m2
07:49 13.9 °C 13.1 °C 1007.7 hPa WNW 3.2 km/h 11.3 km/h 95% 0.0 mm 70.00 W/m2
07:54 13.9 °C 13.1 °C 1007.7 hPa WNW 4.7 km/h 9.7 km/h 95% 0.0 mm 79.00 W/m2
07:59 13.9 °C 13.1 °C 1007.7 hPa NW 4.7 km/h 11.3 km/h 95% 0.0 mm 88.00 W/m2
08:04 13.9 °C 13.1 °C 1007.7 hPa NW 3.2 km/h 12.9 km/h 95% 0.0 mm 72.00 W/m2
08:09 13.9 °C 13.1 °C 1007.3 hPa WNW 4.7 km/h 11.3 km/h 95% 0.0 mm 102.00 W/m2
08:14 14.1 °C 13.3 °C 1007.3 hPa WNW 6.4 km/h 6.4 km/h 95% 0.0 mm 142.00 W/m2
08:19 14.1 °C 13.3 °C 1007.3 hPa WNW 4.7 km/h 6.4 km/h 95% 0.0 mm 128.00 W/m2
08:24 14.1 °C 13.3 °C 1007.3 hPa NW 7.9 km/h 9.7 km/h 95% 0.0 mm 132.00 W/m2
08:29 14.1 °C 13.3 °C 1007.3 hPa Calm   6.4 km/h 95% 0.0 mm 121.00 W/m2
08:34 14.2 °C 13.4 °C 1007.3 hPa Calm   9.7 km/h 95% 0.0 mm 141.00 W/m2
08:39 14.2 °C 13.4 °C 1007.7 hPa NW 3.2 km/h 12.9 km/h 95% 0.0 mm 109.00 W/m2
08:44 14.2 °C 13.4 °C 1007.7 hPa NW 3.2 km/h 8.0 km/h 95% 0.0 mm 127.00 W/m2
08:49 14.3 °C 13.5 °C 1007.7 hPa NW 1.4 km/h 6.4 km/h 95% 0.0 mm 113.00 W/m2
08:54 14.3 °C 13.5 °C 1007.7 hPa Calm   11.3 km/h 95% 0.0 mm 130.00 W/m2
08:59 14.3 °C 13.3 °C 1007.7 hPa Calm   3.2 km/h 94% 0.0 mm 111.00 W/m2
09:04 14.4 °C 13.4 °C 1007.7 hPa NW 3.2 km/h 6.4 km/h 94% 0.0 mm 90.00 W/m2
09:09 14.5 °C 13.5 °C 1007.7 hPa NW 3.2 km/h 3.2 km/h 94% 0.0 mm 107.00 W/m2
09:14 14.6 °C 13.6 °C 1007.7 hPa Calm   12.9 km/h 94% 0.0 mm 120.00 W/m2
09:19 14.6 °C 13.6 °C 1007.7 hPa NW 4.7 km/h 8.0 km/h 94% 0.0 mm 95.00 W/m2
09:24 14.5 °C 13.5 °C 1007.7 hPa NW 3.2 km/h 11.3 km/h 94% 0.0 mm 104.00 W/m2
09:29 14.6 °C 13.5 °C 1007.7 hPa NW 4.7 km/h 4.8 km/h 93% 0.0 mm 128.00 W/m2
09:34 14.7 °C 13.6 °C 1007.7 hPa Calm   4.8 km/h 93% 0.0 mm 128.00 W/m2
09:39 14.7 °C 13.6 °C 1007.7 hPa Calm   3.2 km/h 93% 0.0 mm 132.00 W/m2
09:44 14.8 °C 13.7 °C 1007.7 hPa Calm     93% 0.0 mm 121.00 W/m2
09:49 14.9 °C 13.8 °C 1007.7 hPa Calm   3.2 km/h 93% 0.0 mm 100.00 W/m2
09:54 14.9 °C 13.6 °C 1007.7 hPa Calm     92% 0.0 mm 113.00 W/m2
09:59 14.9 °C 13.6 °C 1007.7 hPa NW 3.2 km/h 4.8 km/h 92% 0.0 mm 107.00 W/m2
10:04 15.0 °C 13.7 °C 1007.7 hPa Calm   4.8 km/h 92% 0.0 mm 114.00 W/m2
10:09 15.0 °C 13.7 °C 1007.7 hPa Calm     92% 0.0 mm 109.00 W/m2
10:14 15.2 °C 13.9 °C 1007.7 hPa Calm     92% 0.0 mm 149.00 W/m2
10:19 15.2 °C 13.7 °C 1007.7 hPa Calm   1.6 km/h 91% 0.0 mm 105.00 W/m2
10:24 15.2 °C 13.7 °C 1007.7 hPa NW 3.2 km/h 4.8 km/h 91% 0.0 mm 83.00 W/m2
10:29 15.2 °C 13.6 °C 1008.0 hPa Calm     90% 0.0 mm 111.00 W/m2
10:34 15.3 °C 13.7 °C 1008.0 hPa Calm   4.8 km/h 90% 0.0 mm 185.00 W/m2
10:39 15.3 °C 13.7 °C 1007.7 hPa Calm     90% 0.0 mm 178.00 W/m2
10:44 15.4 °C 13.8 °C 1008.0 hPa NW 1.4 km/h 6.4 km/h 90% 0.0 mm 114.00 W/m2
10:49 15.4 °C 13.8 °C 1008.0 hPa Calm   3.2 km/h 90% 0.0 mm 116.00 W/m2
10:54 15.6 °C 14.0 °C 1008.0 hPa Calm     90% 0.0 mm 141.00 W/m2
10:59 15.6 °C 13.8 °C 1008.0 hPa Calm   6.4 km/h 89% 0.0 mm 162.00 W/m2
11:04 15.6 °C 13.8 °C 1008.0 hPa Calm     89% 0.0 mm 155.00 W/m2
11:09 15.6 °C 13.8 °C 1008.0 hPa WNW 6.4 km/h 6.4 km/h 89% 0.0 mm 146.00 W/m2
11:14 15.5 °C 13.5 °C 1008.0 hPa Calm   6.4 km/h 88% 0.0 mm 118.00 W/m2
11:19 15.6 °C 13.6 °C 1008.0 hPa NNW 1.4 km/h 1.6 km/h 88% 0.0 mm 118.00 W/m2
11:24 15.6 °C 13.6 °C 1008.0 hPa Calm     88% 0.0 mm 167.00 W/m2
11:29 15.6 °C 13.6 °C 1008.0 hPa Calm     88% 0.0 mm 239.00 W/m2
11:34 15.7 °C 13.7 °C 1008.0 hPa NW 6.4 km/h 6.4 km/h 88% 0.0 mm 246.00 W/m2
11:39 15.8 °C 13.8 °C 1008.0 hPa Calm   3.2 km/h 88% 0.0 mm 265.00 W/m2
11:44 15.9 °C 13.9 °C 1008.0 hPa NW 4.7 km/h 4.8 km/h 88% 0.0 mm 292.00 W/m2
11:49 15.9 °C 13.7 °C 1008.0 hPa Calm     87% 0.0 mm 301.00 W/m2
11:54 16.1 °C 13.9 °C 1008.0 hPa Calm     87% 0.0 mm 267.00 W/m2
11:59 16.2 °C 13.9 °C 1008.0 hPa NW 3.2 km/h 4.8 km/h 86% 0.0 mm 253.00 W/m2
12:04 16.3 °C 14.0 °C 1008.0 hPa Calm     86% 0.0 mm 193.00 W/m2
12:09 16.4 °C 14.1 °C 1008.0 hPa NW 4.7 km/h 4.8 km/h 86% 0.0 mm 162.00 W/m2
12:14 16.4 °C 13.9 °C 1008.0 hPa NW 4.7 km/h 4.8 km/h 85% 0.0 mm 146.00 W/m2
12:19 16.4 °C 13.9 °C 1008.0 hPa Calm     85% 0.0 mm 163.00 W/m2
12:24 16.6 °C 14.1 °C 1008.0 hPa Calm     85% 0.0 mm 181.00 W/m2
12:29 16.6 °C 13.9 °C 1008.0 hPa Calm     84% 0.0 mm 163.00 W/m2
12:34 16.6 °C 13.9 °C 1008.0 hPa Calm   3.2 km/h 84% 0.0 mm 109.00 W/m2
12:39 16.6 °C 13.9 °C 1008.0 hPa Calm     84% 0.0 mm 113.00 W/m2
12:44 16.7 °C 14.2 °C 1008.0 hPa Calm   14.5 km/h 85% 0.0 mm 146.00 W/m2
12:49 16.7 °C 14.2 °C 1008.0 hPa Calm     85% 0.0 mm 144.00 W/m2
12:54 16.6 °C 13.9 °C 1008.0 hPa Calm     84% 0.0 mm 167.00 W/m2
12:59 16.6 °C 13.9 °C 1008.0 hPa Calm     84% 0.0 mm 165.00 W/m2
13:04 16.6 °C 13.7 °C 1008.0 hPa Calm     83% 0.0 mm 206.00 W/m2
13:09 16.7 °C 14.0 °C 1008.0 hPa NW 1.4 km/h 6.4 km/h 84% 0.0 mm 213.00 W/m2
13:14 16.7 °C 13.8 °C 1008.0 hPa NW 3.2 km/h 4.8 km/h 83% 0.0 mm 190.00 W/m2
13:19 16.8 °C 13.9 °C 1008.0 hPa Calm   8.0 km/h 83% 0.0 mm 179.00 W/m2
13:24 16.7 °C 13.6 °C 1008.4 hPa Calm   9.7 km/h 82% 0.0 mm 214.00 W/m2
13:29 16.8 °C 13.7 °C 1008.4 hPa NW 4.7 km/h 8.0 km/h 82% 0.0 mm 223.00 W/m2
13:34 16.8 °C 13.7 °C 1008.4 hPa NW 4.7 km/h 6.4 km/h 82% 0.0 mm 221.00 W/m2
13:39 16.8 °C 13.9 °C 1008.4 hPa Calm   4.8 km/h 83% 0.0 mm 229.00 W/m2
13:44 16.8 °C 13.7 °C 1008.4 hPa WNW 4.7 km/h 8.0 km/h 82% 0.0 mm 265.00 W/m2
13:49 16.8 °C 13.5 °C 1008.4 hPa NW 6.4 km/h 8.0 km/h 81% 0.0 mm 216.00 W/m2
13:54 16.8 °C 13.5 °C 1008.4 hPa WNW 3.2 km/h 8.0 km/h 81% 0.0 mm 155.00 W/m2
13:59 16.8 °C 13.5 °C 1008.4 hPa Calm   6.4 km/h 81% 0.0 mm 137.00 W/m2
14:04 17.0 °C 13.9 °C 1008.0 hPa Calm   4.8 km/h 82% 0.0 mm 181.00 W/m2
14:09 17.1 °C 14.0 °C 1008.0 hPa Calm   4.8 km/h 82% 0.0 mm 255.00 W/m2
14:14 17.1 °C 14.0 °C 1008.0 hPa WNW 4.7 km/h 6.4 km/h 82% 0.0 mm 239.00 W/m2
14:19 17.1 °C 13.8 °C 1008.0 hPa Calm   4.8 km/h 81% 0.0 mm 176.00 W/m2
14:24 17.1 °C 14.0 °C 1008.0 hPa WNW 3.2 km/h 6.4 km/h 82% 0.0 mm 144.00 W/m2
14:29 17.1 °C 14.0 °C 1008.0 hPa NW 3.2 km/h 3.2 km/h 82% 0.0 mm 190.00 W/m2
14:34 17.1 °C 14.0 °C 1008.4 hPa WNW 4.7 km/h 11.3 km/h 82% 0.0 mm 158.00 W/m2
14:39 17.1 °C 14.0 °C 1008.0 hPa Calm   8.0 km/h 82% 0.0 mm 144.00 W/m2
14:44 17.1 °C 14.0 °C 1008.0 hPa WNW 6.4 km/h 11.3 km/h 82% 0.0 mm 155.00 W/m2
14:49 17.1 °C 14.0 °C 1008.0 hPa WNW 1.4 km/h 8.0 km/h 82% 0.0 mm 139.00 W/m2
14:54 17.0 °C 13.9 °C 1008.0 hPa WNW 6.4 km/h 12.9 km/h 82% 0.0 mm 207.00 W/m2
14:59 17.0 °C 14.1 °C 1008.0 hPa NW 7.9 km/h 17.7 km/h 83% 0.0 mm 269.00 W/m2
15:04 16.9 °C 14.0 °C 1008.4 hPa WNW 11.1 km/h 14.5 km/h 83% 0.0 mm 221.00 W/m2
15:09 16.9 °C 13.8 °C 1008.0 hPa WNW 13.0 km/h 17.7 km/h 82% 0.0 mm 236.00 W/m2
15:14 16.9 °C 13.8 °C 1008.4 hPa West 6.4 km/h 12.9 km/h 82% 0.0 mm 250.00 W/m2
15:19 16.9 °C 14.0 °C 1008.4 hPa WNW 6.4 km/h 14.5 km/h 83% 0.0 mm 230.00 W/m2
15:24 16.8 °C 13.7 °C 1008.4 hPa West 3.2 km/h 17.7 km/h 82% 0.0 mm 218.00 W/m2
15:29 17.0 °C 14.1 °C 1008.0 hPa NW 6.4 km/h 14.5 km/h 83% 0.0 mm 199.00 W/m2
15:34 16.9 °C 13.8 °C 1008.4 hPa NW 9.7 km/h 16.1 km/h 82% 0.0 mm 232.00 W/m2
15:39 17.0 °C 14.1 °C 1008.0 hPa WNW 11.1 km/h 16.1 km/h 83% 0.0 mm 281.00 W/m2
15:44 17.0 °C 14.1 °C 1008.0 hPa NW 9.7 km/h 14.5 km/h 83% 0.0 mm 359.00 W/m2
15:49 17.1 °C 14.2 °C 1008.0 hPa WNW 1.4 km/h 11.3 km/h 83% 0.0 mm 353.00 W/m2
15:54 17.2 °C 14.1 °C 1008.0 hPa NW 7.9 km/h 14.5 km/h 82% 0.0 mm 248.00 W/m2
15:59 17.2 °C 14.1 °C 1008.0 hPa WNW 6.4 km/h 12.9 km/h 82% 0.0 mm 207.00 W/m2
16:04 17.2 °C 14.1 °C 1008.0 hPa NW 1.4 km/h 8.0 km/h 82% 0.0 mm 156.00 W/m2
16:09 17.2 °C 13.9 °C 1008.0 hPa NW 3.2 km/h 8.0 km/h 81% 0.0 mm 114.00 W/m2
16:14 17.2 °C 13.9 °C 1008.0 hPa North 3.2 km/h 8.0 km/h 81% 0.0 mm 63.00 W/m2
16:19 17.2 °C 14.1 °C 1008.0 hPa North 3.2 km/h 14.5 km/h 82% 0.0 mm 69.00 W/m2
16:24 17.0 °C 14.1 °C 1008.0 hPa NNW 3.2 km/h 9.7 km/h 83% 0.0 mm 86.00 W/m2
16:29 16.8 °C 13.9 °C 1008.0 hPa Calm   14.5 km/h 83% 0.0 mm 100.00 W/m2
16:34 16.8 °C 14.1 °C 1008.0 hPa Calm   4.8 km/h 84% 0.0 mm 130.00 W/m2
16:39 16.8 °C 14.1 °C 1008.0 hPa West 12.9 km/h 12.9 km/h 84% 0.0 mm 97.00 W/m2
16:44 16.7 °C 13.8 °C 1008.0 hPa NW 7.9 km/h 12.9 km/h 83% 0.0 mm 137.00 W/m2
16:49 16.7 °C 13.8 °C 1008.0 hPa West 4.7 km/h 8.0 km/h 83% 0.0 mm 169.00 W/m2
16:54 16.8 °C 13.9 °C 1008.0 hPa NNW 4.7 km/h 4.8 km/h 83% 0.0 mm 232.00 W/m2
16:59 16.8 °C 13.9 °C 1008.0 hPa NNW 7.9 km/h 8.0 km/h 83% 0.0 mm 304.00 W/m2
17:04 16.9 °C 14.0 °C 1008.0 hPa NW 4.7 km/h 6.4 km/h 83% 0.0 mm 285.00 W/m2
17:09 17.1 °C 14.0 °C 1008.0 hPa WNW 11.1 km/h 11.3 km/h 82% 0.0 mm 271.00 W/m2
17:14 17.1 °C 13.8 °C 1008.0 hPa NW 4.7 km/h 16.1 km/h 81% 0.0 mm 255.00 W/m2
17:19 17.1 °C 13.6 °C 1008.0 hPa WNW 7.9 km/h 14.5 km/h 80% 0.0 mm 230.00 W/m2
17:24 17.1 °C 13.6 °C 1008.0 hPa NW 11.1 km/h 14.5 km/h 80% 0.0 mm 230.00 W/m2
17:29 17.0 °C 13.5 °C 1008.0 hPa NW 4.7 km/h 12.9 km/h 80% 0.0 mm 218.00 W/m2
17:34 17.1 °C 13.6 °C 1008.0 hPa WNW 6.4 km/h 17.7 km/h 80% 0.0 mm 193.00 W/m2
17:39 17.2 °C 13.5 °C 1008.0 hPa NW 9.7 km/h 14.5 km/h 79% 0.0 mm 134.00 W/m2
17:44 17.2 °C 13.7 °C 1008.0 hPa Calm   14.5 km/h 80% 0.0 mm 93.00 W/m2
17:49 17.2 °C 13.9 °C 1008.0 hPa NW 3.2 km/h 11.3 km/h 81% 0.0 mm 77.00 W/m2
17:54 17.3 °C 14.0 °C 1008.0 hPa WNW 3.2 km/h 14.5 km/h 81% 0.0 mm 84.00 W/m2
17:59 17.3 °C 14.0 °C 1008.0 hPa WNW 3.2 km/h 11.3 km/h 81% 0.0 mm 134.00 W/m2
18:04 17.2 °C 14.1 °C 1008.0 hPa WNW 6.4 km/h 11.3 km/h 82% 0.0 mm 165.00 W/m2
18:09 17.2 °C 14.1 °C 1008.4 hPa WNW 9.7 km/h 14.5 km/h 82% 0.0 mm 186.00 W/m2
18:14 17.3 °C 14.2 °C 1008.0 hPa West 4.7 km/h 12.9 km/h 82% 0.0 mm 188.00 W/m2
18:19 17.3 °C 14.2 °C 1008.0 hPa WNW 6.4 km/h 12.9 km/h 82% 0.0 mm 141.00 W/m2
18:24 17.3 °C 14.0 °C 1008.4 hPa WNW 4.7 km/h 14.5 km/h 81% 0.0 mm 127.00 W/m2
18:29 17.3 °C 13.8 °C 1008.4 hPa WNW 11.1 km/h 16.1 km/h 80% 0.0 mm 134.00 W/m2
18:34 17.3 °C 13.8 °C 1008.4 hPa NW 14.3 km/h 17.7 km/h 80% 0.0 mm 135.00 W/m2
18:39 17.2 °C 13.7 °C 1008.4 hPa WNW 7.9 km/h 12.9 km/h 80% 0.0 mm 162.00 W/m2
18:44 17.2 °C 13.5 °C 1008.4 hPa West 9.7 km/h 16.1 km/h 79% 0.0 mm 169.00 W/m2
18:49 17.1 °C 13.2 °C 1008.4 hPa West 16.3 km/h 17.7 km/h 78% 0.0 mm 183.00 W/m2
18:54 17.1 °C 13.2 °C 1008.4 hPa WNW 14.3 km/h 16.1 km/h 78% 0.0 mm 178.00 W/m2
18:59 17.1 °C 13.0 °C 1008.4 hPa NW 16.3 km/h 19.3 km/h 77% 0.0 mm 169.00 W/m2
19:04 17.1 °C 13.0 °C 1008.4 hPa West 14.3 km/h 16.1 km/h 77% 0.0 mm 181.00 W/m2